Hourly Weather Roundup
Issued by NWS

Home | Current Version | Previous Version | Text Only | Print | Product List | Glossary On
Versions: 1 2 3 4 5 6 7 8 9 10 11 12 13 14 15 16 17 18 19 20 21 22 23 24 25 26 27 28 29 30 31 32 33 34 35 36 37 38 39 40 41 42 43 44 45 46 47 48 49 50
000
NZUS43 KILX 280010
HWRCRS

CRS HOURLY WEATHER ROUNDUP
NATIONAL WEATHER SERVICE, LINCOLN IL
700 PM CDT FRI MAY 27 2016


CITY           SKY/WX    TMP DP  RH WIND       PRES   REMARKS
CHAMPAIGN      CLOUDY    72  69  90 S9        29.88R
LAWRENCEVILLE  CLOUDY    82  63  52 S16       29.90R HX  83
PEORIA         PTSUNNY   77  67  71 S15       29.78F
SPRINGFIELD    PTSUNNY   76  68  76 S18       29.81S
$$


CITY           SKY/WX    TMP DP  RH WIND       PRES   REMARKS
BLOOMINGTON    CLOUDY    73  68  84 S26       29.85R
DECATUR        LGT RAIN  70  66  87 S14       29.86F
EFFINGHAM      RAIN      68  68  99 SE10      29.91R
FLORA          LGT RAIN  69  67  93 SW9       29.89F
GALESBURG      MOSUNNY   76  67  76 S8G16     29.76R
JACKSONVILLE   HVY RAIN  76  69  79 S18G24    29.79R
LACON          PTSUNNY   76  66  71 S7G20     29.78S
LINCOLN        CLOUDY    75  69  80 S12G17    29.82R
LITCHFIELD     DRIZZLE   71  67  87 S14G22    29.82S

CITY           SKY/WX    TMP DP  RH WIND       PRES   REMARKS
MACOMB         PTSUNNY   75  69  79 SE15G21   29.77S
MATTOON        LGT RAIN  72  64  76 S12G18    29.88R
MOLINE         MOSUNNY   79  67  66 S10       29.74S HX  81
OLNEY          CLOUDY    72  68  88 W9        29.90R
PARIS          RAIN      71  69  93 S13       29.92R
PONTIAC        CLOUDY    80  68  67 S25       29.84R HX  82
QUINCY         PTSUNNY   76  69  79 SE15      29.74S
RANTOUL        LGT RAIN  72  70  93 S8        29.88R
ROBINSON       CLOUDY    75  68  79 CALM      29.90R
TAYLORVILLE    CLOUDY    70  67  90 S14G21    29.83S
TERRE HAUTE    PTSUNNY   81  62  52 S15       29.89S HX  82
$$


CITY           SKY/WX    TMP DP  RH WIND       PRES   REMARKS
BURLINGTON     SUNNY     77  69  76 S7        29.73S
CHICAGO        CLOUDY    76  66  71 S10       29.82R
DES MOINES     CLOUDY    75  61  61 N6        29.71F
EVANSVILLE     CLOUDY    80  60  50 S8        29.91R HX  81
INDIANAPOLIS   MOSUNNY   82  61  48 S15       29.91R HX  83
KANSAS CITY    CLOUDY    69  64  84 E6        29.70S
MILWAUKEE      CLOUDY    69  66  90 S10       29.82F
ST LOUIS       LGT RAIN  73  68  83 S15       29.80R
$$





USA.gov is the U.S. government's official web portal to all federal, state and local government web resources and services.